Weippe, ID (83553)

7:35 PM PST on December 02, 2016 (GMT -0800)
APRSWXNET | | Change Station

Elev 3069 ft 46.38 °N, 115.95 °W | Updated 16 minutes ago

Overcast
Overcast
33 °F
Feels Like 33 °F
N
0
Wind Variable Wind from SE
Gusts 0.0 mph

Today
High -- | Low -- °F
--% Chance of Precip.
Yesterday
High -- | Low -- °F
Precip. -- in
Pressure 30.13 in
Visibility 10.0 miles
Clouds Overcast 5000 ft
Windchill 33 °F
Dew Point 30 °F
Humidity 87%
Rainfall in
Snow Depth Not available.
7:08 AM 3:58 PM
Waxing Crescent, 12% visible
METAR KGIC 030315Z AUTO 23012G20KT 10SM OVC050 02/M06 A3013 RMK AO1
Pressure 30.13 in
Visibility 10.0 miles
Clouds Overcast 5000 ft
Windchill 33 °F
Dew Point 30 °F
Humidity 87%
Rainfall in
Snow Depth Not available.
7:08 AM 3:58 PM
Waxing Crescent, 12% visible
METAR KGIC 030315Z AUTO 23012G20KT 10SM OVC050 02/M06 A3013 RMK AO1

10-Day Weather Forecast

Almanac

Astronomy

Dec. 02, 2016 Rise Set
Actual Time
Civil Twilight
Nautical Twilight
Astronomical Twilight
Moon
Length of Visible Light
Length of Day
Tomorrow will be .
, % of the Moon is Illuminated

Today's Extremes

State Highs State Lows

Community

WunderPhotos

Upload Photos

1,955,406 photos uploaded!

WunderBlog® & News

Nearby

Air Quality

  Air Quality AQ Index Pollutant
Not available.

Snow Depth

Station Depth Elevation

Earthquake Activity

City Distance Mag. Time & Date
Minimum magnitude displayed is 2.5.

Coastal Water Temperatures

Place Temperature

Stations

Nearby Weather Stations

Station Location Temp. Windchill Dew Point Humidity Wind Precip. Elev Updated Type
                   

Watches & Warnings

There are currently no watches in effect.